Weather in Shipunikha

Russia / Altai Krai     50°56′12″N   82°22′42″E
temp.,
°C
wind,
m/s
gust,
m/s
humid.,
%
clouds,
%
prec.,
mm/h
press.,
hPa
HPBL,
m
12 may, wed
wed1201:00+6ese11595 0.0 101510
04:00+6ene115991 0.0 101510
07:00+8ssw116283 0.1 101628
10:00+13nw354846 0.0 10151077
13:00+15nnw574085 0.1 10152428
16:00+15nnw683953 0.0 10152043
19:00+15nnw484219 0.0 10161887
22:00+9nne257037 0.2 1019102
13 may, thu
thu1301:00+6ne10815 0.2 101910
04:00+5ese118489 0.0 101910
07:00+7se117658 0.0 101830
10:00+13sw2451100 0.0 1016725
13:00+15w4542100 0.0 10151980
16:00+12sw5669100 0.1 10151013
19:00+9s2697100 5.6 1015386
22:00+6ese119647 2.5 101616
14 may, fri
fri1401:00+6e1194100 2.7 101610
04:00+7ese008969 0.1 101612
07:00+5n24945 0.1 1018113
10:00+8n467814 0.2 1019792
13:00+10n576649 0.5 10201263
16:00+11n575927 0.1 10201357
19:00+12nne49535 0.1 10211639
22:00+6ne22857 0.0 102439
15 may, sat
sat1501:00+5nne3128760 0.0 1025304
04:00+5nne3118622 0.0 1024289
07:00+5ne28865 0.0 1025248
10:00+13ne48486 0.0 1023760
13:00+17nne57365 0.0 10231211
16:00+18nne57390 0.0 10211434
19:00+17nne47530 0.0 10211010
22:00+9ne23830 0.0 102346
16 may, sun
sun1601:00+8ene22875 0.0 102218
04:00+7e21855 0.0 102112
07:00+9ese117611 0.0 102126
10:00+18wnw12474 0.0 1019584
13:00+20w323681 0.0 10181318
16:00+21wnw2336100 0.0 10171285
19:00+20s115194 0.0 1016223
22:00+13ene227331 0.2 101719